Location: Bienfait
(49.1431°N, 102.8077°W)
Time: 12:10:23
(UTC+00:00)

X-37B - Visible Passes

Search period start: 22 January 2022 00:00
Search period end: 01 February 2022 00:00
Orbit: 334 x 337 km, 45.0° (Epoch: 11 January)

Date Brightness Start Highest point End Pass type
(mag) Time Alt. Az. Time Alt. Az. Time Alt. Az.
28 Jan 2.8 01:14:42 10° S 01:15:56 12° SSE 01:15:56 12° SSE visible
29 Jan 2.3 01:33:53 10° SSW 01:35:38 20° S 01:35:38 20° S visible
30 Jan 2.9 00:20:10 10° S 00:21:25 12° SSE 00:22:41 10° SE visible
30 Jan 2.4 01:53:48 10° SW 01:55:16 22° SSW 01:55:16 22° SSW visible
31 Jan 2.2 00:39:19 10° SSW 00:41:33 21° SSE 00:43:39 11° ESE visible
31 Jan 3.2 02:14:00 10° WSW 02:14:53 17° WSW 02:14:53 17° WSW visible
